Tracking 25709 objects as of 23-May-2022
HD Live streaming from Space Station
objects crossing your sky now

CZ-2C DEB

Track CZ-2C DEB now!
10-day predictions


NORAD ID: 37733
Int'l Code: 2011-030D
Perigee: 690.1 km
Apogee: 907.9 km
Inclination: 98.4 °
Period: 100.7 minutes
Semi major axis: 7169 km
RCS: 0.096 m2 (small)
Launch date: July 6, 2011
Source: People's Republic of China (PRC)
Launch site: Jiuquan Satellite Launch Center, China (JSC)

Note: This is SATELLITE DEBRIS
aabbcc
Your satellite tracking list
Your tracking list is empty




NASA's NSSDC Master Catalog

Two Line Element Set (TLE):
1 37733U 11030D   22142.90453830  .00004087  00000-0  14135-2 0  9996
2 37733  98.4048 102.7800 0151892 342.9947  86.0493 14.29966263566397
Source of the keplerian elements: AFSPC